Total_Precipitation_Accumulation
1.32 1.66 2.03 2.35 2.86 2.92 2.83 2.93 3.13 3.29 3.38 3.63 3.71 3.89 4.20 4.39 4.54 4.61 4.50 4.43 4.28 4.34 4.36 4.21 3.98 3.87 3.88 3.80 3.75 3.57 3.38 3.14 2.99 2.88 2.57 2.14 1.88 1.87 1.84 1.84 1.83 1.81 1.82
1.62 1.84 2.07 2.45 2.86 3.07 3.14 3.19 3.43 3.73 3.97 4.20 4.61 4.91 5.13 5.31 5.48 5.53 5.09 4.85 4.71 4.64 4.60 4.61 4.54 4.32 4.14 3.96 3.78 3.70 3.53 3.19 3.04 2.99 2.88 2.46 2.08 1.74 1.53 1.53 1.52 1.54 1.69
1.84 1.96 2.10 2.46 2.79 2.99 3.12 3.27 3.52 3.98 4.55 4.92 5.32 5.72 5.87 5.88 5.71 5.46 5.33 5.17 5.04 4.92 4.77 4.62 4.40 4.25 4.14 4.00 3.80 3.60 3.47 3.24 3.07 2.96 3.02 2.79 2.42 1.94 1.62 1.44 1.35 1.32 1.42
1.91 2.06 2.23 2.47 2.78 3.00 3.10 3.43 3.94 4.59 5.16 5.63 6.11 6.58 6.72 6.53 6.21 5.77 5.36 5.08 4.81 4.50 4.26 4.13 4.05 3.90 3.62 3.39 3.24 3.14 2.99 2.86 2.73 2.69 2.59 2.47 2.32 2.28 2.08 1.80 1.63 1.55 1.52
1.64 1.89 2.04 2.21 2.59 2.79 2.98 3.34 3.93 4.63 5.33 6.15 6.82 7.20 7.10 6.80 6.39 5.71 5.12 4.63 4.23 3.89 3.63 3.51 3.33 3.12 2.78 2.45 2.35 2.42 2.49 2.46 2.39 2.37 2.38 2.34 2.21 2.16 2.12 2.02 1.87 1.76 1.62
1.38 1.45 1.52 1.79 2.15 2.45 2.72 3.11 3.72 4.46 5.13 5.75 6.26 6.43 6.36 6.20 5.71 5.03 4.42 4.02 3.68 3.34 2.96 2.64 2.35 2.12 1.95 1.75 1.71 1.75 1.87 2.05 2.14 2.25 2.26 2.25 2.16 2.13 2.14 2.07 2.04 1.96 1.79
1.26 1.24 1.28 1.49 1.82 2.06 2.44 2.84 3.28 3.90 4.33 4.65 5.05 5.20 5.23 5.06 4.77 4.33 3.89 3.46 2.98 2.63 2.33 2.03 1.85 1.69 1.59 1.52 1.47 1.45 1.46 1.56 1.71 1.85 1.97 2.05 2.05 2.06 2.11 2.20 2.23 2.06 1.91
1.23 1.25 1.32 1.46 1.71 1.86 2.06 2.27 2.58 2.93 3.05 3.09 3.30 3.52 3.57 3.56 3.47 3.21 2.93 2.63 2.28 1.91 1.63 1.42 1.27 1.19 1.19 1.19 1.24 1.27 1.27 1.29 1.37 1.48 1.63 1.77 1.82 1.85 1.87 1.90 1.99 2.05 1.95
1.14 1.24 1.30 1.29 1.33 1.42 1.49 1.58 1.72 1.87 1.92 1.97 2.01 2.12 2.21 2.24 2.19 2.05 1.82 1.61 1.44 1.23 1.06 0.95 0.92 0.88 0.86 0.89 0.90 0.95 1.03 1.11 1.16 1.19 1.26 1.36 1.43 1.51 1.57 1.64 1.70 1.80 1.84
1.08 1.18 1.23 1.17 1.14 1.12 1.18 1.24 1.28 1.33 1.38 1.42 1.40 1.41 1.44 1.43 1.37 1.28 1.21 1.08 0.97 0.88 0.80 0.72 0.67 0.62 0.60 0.61 0.65 0.69 0.73 0.81 0.90 0.95 0.99 1.07 1.12 1.22 1.29 1.39 1.47 1.49 1.53
1.02 1.08 1.06 0.98 0.94 0.92 0.94 1.00 1.02 1.02 1.04 1.06 1.06 1.06 1.01 0.97 0.95 0.94 0.91 0.81 0.71 0.62 0.56 0.50 0.47 0.46 0.47 0.51 0.57 0.62 0.64 0.67 0.72 0.78 0.83 0.89 0.89 0.97 1.02 1.03 1.07 1.18 1.26
1.10 1.09 1.01 0.91 0.82 0.81 0.80 0.82 0.82 0.84 0.88 0.85 0.82 0.83 0.76 0.70 0.70 0.69 0.63 0.57 0.53 0.48 0.43 0.39 0.38 0.40 0.41 0.43 0.44 0.48 0.52 0.58 0.63 0.66 0.71 0.76 0.77 0.82 0.85 0.87 0.89 0.97 1.07
1.49 1.30 1.12 1.00 0.93 0.87 0.79 0.73 0.70 0.69 0.71 0.71 0.70 0.70 0.67 0.65 0.62 0.59 0.52 0.47 0.46 0.46 0.41 0.37 0.35 0.34 0.34 0.34 0.34 0.36 0.39 0.46 0.53 0.56 0.62 0.67 0.68 0.68 0.66 0.71 0.77 0.84 0.93
1.66 1.43 1.21 1.12 1.05 0.96 0.86 0.77 0.71 0.64 0.60 0.61 0.63 0.62 0.59 0.58 0.56 0.53 0.49 0.46 0.39 0.36 0.34 0.33 0.32 0.31 0.29 0.28 0.28 0.29 0.32 0.38 0.42 0.43 0.48 0.55 0.59 0.60 0.62 0.63 0.73 0.81 0.94
1.55 1.46 1.35 1.27 1.16 1.05 0.97 0.84 0.72 0.64 0.59 0.60 0.63 0.61 0.55 0.50 0.45 0.43 0.41 0.40 0.37 0.33 0.30 0.28 0.27 0.22 0.21 0.20 0.21 0.25 0.30 0.37 0.38 0.38 0.38 0.39 0.44 0.53 0.56 0.57 0.65 0.76 0.90
1.66 1.56 1.47 1.36 1.26 1.12 1.05 0.98 0.88 0.80 0.71 0.68 0.70 0.67 0.62 0.53 0.46 0.40 0.37 0.36 0.32 0.29 0.26 0.24 0.25 0.23 0.18 0.19 0.20 0.21 0.28 0.36 0.38 0.37 0.35 0.31 0.29 0.35 0.43 0.46 0.53 0.65 0.75
1.77 1.66 1.63 1.56 1.46 1.37 1.25 1.12 0.97 0.86 0.75 0.67 0.65 0.63 0.57 0.51 0.45 0.37 0.35 0.37 0.37 0.33 0.31 0.30 0.30 0.32 0.27 0.18 0.16 0.18 0.24 0.34 0.35 0.35 0.37 0.33 0.30 0.35 0.44 0.45 0.42 0.47 0.49
1.92 1.81 1.72 1.65 1.55 1.40 1.24 1.02 0.83 0.74 0.66 0.59 0.55 0.49 0.45 0.45 0.43 0.39 0.38 0.40 0.40 0.38 0.37 0.37 0.38 0.40 0.30 0.19 0.13 0.15 0.24 0.32 0.29 0.30 0.35 0.42 0.44 0.38 0.39 0.44 0.49 0.53 0.54
1.87 1.78 1.66 1.58 1.43 1.21 0.99 0.87 0.73 0.68 0.63 0.57 0.53 0.45 0.39 0.42 0.45 0.43 0.43 0.44 0.43 0.42 0.41 0.43 0.47 0.47 0.36 0.22 0.17 0.19 0.29 0.35 0.31 0.28 0.27 0.29 0.32 0.30 0.35 0.45 0.60 0.63 0.67
1.58 1.56 1.43 1.29 1.19 1.00 0.85 0.83 0.75 0.68 0.64 0.55 0.49 0.43 0.40 0.42 0.46 0.50 0.49 0.44 0.43 0.41 0.36 0.42 0.50 0.48 0.39 0.26 0.21 0.23 0.28 0.34 0.37 0.39 0.38 0.29 0.25 0.26 0.32 0.45 0.61 0.69 0.69
1.26 1.31 1.25 1.16 1.01 0.83 0.82 0.89 0.87 0.73 0.55 0.43 0.43 0.44 0.44 0.43 0.42 0.46 0.47 0.44 0.39 0.41 0.40 0.42 0.44 0.42 0.31 0.24 0.20 0.23 0.28 0.31 0.35 0.41 0.46 0.39 0.28 0.25 0.27 0.34 0.49 0.60 0.61
1.05 1.10 1.11 1.04 0.93 0.85 0.84 0.85 0.81 0.63 0.51 0.48 0.48 0.49 0.45 0.35 0.35 0.43 0.46 0.41 0.40 0.43 0.43 0.44 0.44 0.38 0.29 0.21 0.16 0.18 0.21 0.23 0.32 0.43 0.41 0.37 0.31 0.26 0.27 0.31 0.44 0.54 0.70
0.86 0.90 0.92 0.88 0.86 0.81 0.82 0.80 0.69 0.52 0.48 0.54 0.52 0.47 0.39 0.34 0.34 0.40 0.41 0.38 0.37 0.34 0.31 0.31 0.35 0.31 0.26 0.22 0.13 0.13 0.14 0.18 0.26 0.35 0.35 0.34 0.33 0.36 0.46 0.49 0.55 0.68 0.88
0.70 0.74 0.81 0.80 0.78 0.73 0.72 0.71 0.61 0.54 0.56 0.60 0.52 0.43 0.37 0.31 0.28 0.28 0.26 0.27 0.28 0.26 0.23 0.23 0.25 0.24 0.21 0.15 0.12 0.14 0.17 0.19 0.23 0.30 0.40 0.49 0.55 0.61 0.73 0.81 0.87 0.89 0.92
0.63 0.68 0.78 0.77 0.68 0.61 0.57 0.52 0.53 0.54 0.60 0.57 0.46 0.40 0.32 0.26 0.24 0.20 0.15 0.14 0.14 0.11 0.12 0.12 0.13 0.15 0.15 0.09 0.09 0.12 0.16 0.19 0.22 0.28 0.43 0.64 0.75 0.83 0.86 0.88 0.92 0.90 0.83
0.58 0.66 0.66 0.61 0.54 0.49 0.47 0.40 0.40 0.43 0.46 0.42 0.35 0.29 0.23 0.21 0.17 0.17 0.14 0.08 0.06 0.05 0.05 0.06 0.06 0.07 0.07 0.06 0.07 0.09 0.13 0.16 0.20 0.28 0.49 0.65 0.72 0.77 0.81 0.82 0.80 0.75 0.70